STARLINK-32046, 60198

Orbit data source: Space-Track

STARLINK-32046, 60198 is a payload satellite owned by SpaceX/Seattle (US) in LEO that was launched on Wed, 03 Jul 2024 UTC via an FALCON 9 launch vehicle from the Air Force Eastern Test Range (AFETR). Payload-class satellites include a variety of spacecraft equipped with specific instruments for various scientific and technological missions. These include communications satellites like Starlink; space stations such as the ISS; scientific satellites like the Hubble; Earth observation satellites from companies like Planet Labs, Umbra, and HawkEye 360; GPS; miniature CubeSats for education and research; and military/defense satellites.

Loading next visibility...
Identifier
60198, 2024-124R
Orbit
LEO
Last TLE update
9 hours ago
Origin
Manufacturer
SpaceX/Seattle
Mission
Operational Commercial Communications
Bus & Motor
STARLINK V2M, Unknown motor
Mass
730 kg wet, ~700 kg dry
Launch date (UTC)
2024-07-03 (1 year ago)
Launch vehicle
FALCON 9
Launch site
Air Force Eastern Test Range (AFETR)
Object type
Payload
Rocket body
Debris
Shape & HBR
Box + 2 Pan, 29 m
Radar Cross Section
36.964 m², Large (>1 m²)

Expand to show TLE details & history

TLE from 9 hours ago
0 STARLINK-32046
1 60198U 24124R   25191.75400284  .00018078  00000-0  62047-3 0  9991
2 60198  53.1615   6.3083 0000952  70.0703 290.0400 15.30228833 58339
Epoch: 2025-07-10T18:05Z
TLE epoch observation values (Epoch: 2025-07-10T18:05:45.845Z)
Latitude
-0.00004°
Longitude
165.9515°
Altitude
475.805 km
Speed
7.629 km/s
True Right ascension
00h 25m 13s
True Declination
0° 00' 00"
Sunlit
Object was in daylight at epoch
Visualization orbit readout
Latitude
-21.30786°
Longitude
1.15286°
Altitude
481.542 km
Speed
7.625 km/s
Apparent Right ascension
10h 19m 04s
Apparent Declination
-66° 25' 11"
Sunlit
Object is in daylight
Visualization observer readout
Local Sidereal Time
15:06:37
Azimuth
205.908° SW
Elevation
-29.518°
Doppler factor
1
Orbital elements
Apogee altitude
476.038 km
Perigee altitude
474.733 km
Semi-major axis
6,853.522 km
Eccentricity
0.0001
Inclination
53.1615°
RAAN
6.3083°
Arg. of periapsis
70.0703°
True anomaly
Unknown
Mean anomaly
290.04°
Eccentric anomaly
Unknown
Mean motion
3.82536 °/min
Orbital period
94.11 mins
BSTAR
0.00062047
Loading maneuver chart data...
Loading SW <> Apogee altitude chart data...
Loading historical data...
Loading historical data...
Loading historical data...
Loading historical data...
Loading historical data...
Loading historical data...
Loading historical data...

STARLINK-32046 Visibility forecast

Observer location: undefined°, undefined°

Span
Click to sort rows by Start time (UTC) header in descending order
Start Az.
Max El. time (UTC)
Max El. Az.
Max El.
End time (UTC)
End Az.
5 mins2025-07-11 14:41:00.139Z247.682° W2025-07-11 14:43:00.139Z325.365° NNW41.602°2025-07-11 14:46:00.139Z42.751° NE
5 mins2025-07-11 19:37:00.139Z334.701° NNW2025-07-11 19:40:00.139Z29.633° NE18.797°2025-07-11 19:42:00.139Z66.99° ENE
5 mins2025-07-11 21:16:00.139Z303.842° NW2025-07-11 21:18:00.139Z223.128° SW44.096°2025-07-11 21:21:00.139Z137.526° SSE
|